Regional Weather Roundup
Issued by NWS Northern Indiana

Home | Current Version | Previous Version | Graphics & Text | Print | Product List | Glossary On
Versions: 1 2 3 4 5 6 7 8 9 10 11 12 13 14 15 16 17 18 19 20 21 22 23 24 25 26 27 28 29 30 31 32 33 34 35 36 37 38 39 40 41 42 43 44 45 46 47 48 49 50
000
ASUS43 KIWX 031010
RWRIWX

KIWX WEATHER ROUNDUP
NATIONAL WEATHER SERVICE NORTHERN INDIANA
600 AM EDT THU SEP 03 2015

NOTE: "FAIR" INDICATES FEW OR NO CLOUDS BELOW 12,000 FEET WITH NO
SIGNIFICANT WEATHER AND/OR OBSTRUCTIONS TO VISIBILITY.

* THESE STATIONS ARE NOT UNDER NWS QUALITY CONTROL. THEY ALSO MAY NOT
  REPORT WEATHER SUCH AS PRECIPITATION OR FOG.

INZ001>027-031100-
NORTHERN INDIANA

CITY           SKY/WX    TMP DP  RH WIND       PRES   REMARKS
GARY*            N/A     72  66  83 S5        29.97S
VALPARAISO     PTCLDY    71  67  87 SW3       29.99S
MICHIGAN CITY* MOCLDY    72  64  78 S3        29.99R
LAPORTE*       PTCLDY   N/A N/A N/A CALM      29.99S
KNOX*          CLEAR     68  68 100 S6        29.98S
SOUTH BEND     PTCLDY    71  68  90 SW3       29.99S
GOSHEN         PTCLDY    70  67  90 CALM      29.98S
MONTICELLO*    PTCLDY    71  70  96 CALM      29.99S
LOGANSPORT*    PTCLDY    68  64  88 SW5       30.01S
ROCHESTER*     PTCLDY    72  70  94 CALM      30.00S
WARSAW*        MOCLDY    72  68  88 SW3       30.00S
ANGOLA*        PTCLDY    70  61  73 CALM      29.99S
FORT WAYNE     PTCLDY    70  67  90 CALM      30.00S
HUNTINGTON*    CLEAR     69  65  85 CALM      30.00S
PERU/GRISSOM   MOCLDY    69  66  90 S5        30.00S
MARION*        CLEAR     65  60  83 CALM      30.02S

$$
INZ028>050-031100-
CENTRAL INDIANA

CITY           SKY/WX    TMP DP  RH WIND       PRES   REMARKS
LAFAYETTE      PTCLDY    69  67  93 CALM      29.99F FOG
KOKOMO*        PTCLDY    68  63  83 SW5       30.01S
MUNCIE*        CLEAR     68  67  96 SW5       30.02S
INDIANAPOLIS   CLEAR     70  66  87 CALM      30.01S

$$
MIZ043>046-050>051-056>058-064>065-071>073-077>080-031100-
SOUTHWEST LOWER MICHIGAN

CITY           SKY/WX    TMP DP  RH WIND       PRES   REMARKS
BATTLE CREEK   PTCLDY    71  68  90 CALM      29.98S FOG
BENTON HARBOR  CLEAR     69  67  93 CALM      29.96S FOG
COLDWATER*     PTCLDY    69  67  94 CALM      29.99S
HILLSDALE*     PTCLDY    71  70  96 CALM      30.00R
HOLLAND        PTCLDY    69  67  93 S5        29.96S FOG
GRAND RAPIDS   MOCLDY    71  69  93 S3        29.96S FOG
KALAMAZOO      PTCLDY    71  68  90 SW5       29.98S
STURGIS*       CLEAR     68  66  94 CALM      29.98S
THREE RIVERS*  FAIR      67  67  98 CALM      29.98S FOG

$$
OHZ001>008-015>018-024>025-031100-
NORTHWEST OHIO

CITY           SKY/WX    TMP DP  RH WIND       PRES   REMARKS
WAUSEON*       FAIR      70  70 100 CALM      29.99R
DEFIANCE       PTCLDY    70  66  87 SW3       29.99S
FINDLAY        MOCLDY    68  65  90 SW3       29.99S
TOLEDO EXPRESS PTCLDY    70  67  90 W6        29.98R
TOLEDO METCALF MOCLDY    70  66  87 W5        29.98S
LIMA           PTCLDY    70  67  90 SW3       30.01S FOG

$$
AND FOR LAKE MICHIGAN COASTAL AND OPEN LAKE BUOY OBSERVATIONS

STATION/POSITION TEMP    WIND        PRES    VSBY  WAVE
                 AIR SEA DIR/SP/G                  HT/PER
                 (F)     (DEG/KT/KT) (MB)    (MI)  (FT/S)
CALUMET HARBOR    76     220/  3/  5   N/A
MICHIGAN CITY     75     190/  9/ 10   N/A
BURNS HARBOR      76     220/  7/ 10 1015.2R
SAINT JOSEPH      76     190/ 10/ 13 1015.6S
SOUTH LAKE BUOY   74 71  210/ 10/ 10 1013.2R         0
4 MI NW BRIDGMAN  74 73  270/ 10/ 10   N/A           1
MICHIGAN CITY     74 73  230/  6/  6   N/A           1

$$
&&


USA.gov is the U.S. government's official web portal to all federal, state and local government web resources and services.